OneWeb SL0155

operational
NORAD ID: 48057 Int'l Des: 2021-025 Owner: ONEWEBN Country: UK Constellation: oneweb
LEOCIRCULARPOLARONEWEB_TYPE

OneWeb SL0155について

説明を読み込み中...

リアルタイム位置

3D地球を読み込み中...

次回通過

高度履歴

Altitude vs Time

uPlot chart will show altitude changes over time

軌道要素

1 48057U 21025R 25258.59272269 -.00000187 00000-0 -54790-3 0 9994
2 48057 87.9036 14.7713 0001657 106.0275 254.1037 13.13471782217630
Epoch: Sep 15, 2025 • Age: 16 hours

現在のステータス

高度 1230.1 km
速度 7.24 km/s
衛星直下点 -50.38°S, 111.42°E
打ち上げ日 Mar 25, 2021
運用期間 4.4 years
タイプ internet

技術仕様

分類 Payload
質量 148.00 kg
乾燥質量 140.00 kg
総質量 148.00 kg
長さ 1.30 m
直径 1.00 m
スパン 5.00 m
形状 Trapezoid+2 pan
製造者 ONEWUS
バスタイプ ARROW
フェーズステータス In Orbit
所有者/国 ONEWEBN/UK

大規模コンステレーション

Loading constellations...